Hourly Weather Polovinino

Today, 5 August, Wednesday

Time Temperature Precipitation Wind Pressure Humidity
00:00 +16°C° 0 mm 3 mps 743 mmHg 91%
01:00 +14°C° 0 mm 3 mps 743 mmHg 91%
02:00 +16°C° 0 mm 3 mps 743 mmHg 90%
03:00 +16°C° 0 mm 3 mps 743 mmHg 89%
04:00 +16°C° 0 mm 3 mps 743 mmHg 88%
05:00 +15°C° 0 mm 4 mps 743 mmHg 87%
06:00 +17°C° 0 mm 4 mps 743 mmHg 83%
07:00 +19°C° 0 mm 4 mps 743 mmHg 79%
08:00 +20°C° 0 mm 4 mps 743 mmHg 75%
09:00 +21°C° 0 mm 4 mps 743 mmHg 71%
10:00 +23°C° 0 mm 4 mps 744 mmHg 68%
11:00 +25°C° 0 mm 4 mps 744 mmHg 64%
12:00 +25°C° 0 mm 4 mps 744 mmHg 64%
13:00 +26°C° 0 mm 4 mps 744 mmHg 63%
14:00 +26°C° 0 mm 3 mps 744 mmHg 63%
15:00 +26°C° 0 mm 3 mps 744 mmHg 65%
16:00 +26°C° 0 mm 2 mps 744 mmHg 67%
17:00 +26°C° 0 mm 2 mps 744 mmHg 69%
18:00 +24°C° 0 mm 2 mps 744 mmHg 75%
19:00 +23°C° 0 mm 2 mps 744 mmHg 81%
20:00 +21°C° 0 mm 1 mps 744 mmHg 87%
21:00 +20°C° 0 mm 1 mps 744 mmHg 89%
22:00 +20°C° 0 mm 1 mps 744 mmHg 92%
23:00 +17°C° 0 mm 0 mps 744 mmHg 94%

Tomorrow, 6 August, Thursday

Time Temperature Precipitation Wind Pressure Humidity
00:00 +19°C° 0 mm 1 mps 745 mmHg 95%
01:00 +18°C° 0 mm 1 mps 745 mmHg 96%
02:00 +18°C° 0 mm 1 mps 745 mmHg 97%
03:00 +18°C° 0.1 mm 1 mps 745 mmHg 97%
04:00 +18°C° 0.1 mm 1 mps 745 mmHg 98%
05:00 +18°C° 0.1 mm 1 mps 746 mmHg 98%
06:00 +18°C° 0 mm 2 mps 746 mmHg 93%
07:00 +19°C° 0 mm 2 mps 746 mmHg 88%
08:00 +20°C° 0 mm 2 mps 747 mmHg 84%
09:00 +21°C° 0 mm 3 mps 747 mmHg 75%
10:00 +22°C° 0 mm 3 mps 747 mmHg 66%
11:00 +24°C° 0 mm 3 mps 747 mmHg 57%
12:00 +25°C° 0 mm 3 mps 747 mmHg 55%
13:00 +25°C° 0 mm 3 mps 747 mmHg 53%
14:00 +25°C° 0 mm 3 mps 748 mmHg 50%
15:00 +25°C° 0 mm 3 mps 748 mmHg 54%
16:00 +24°C° 0 mm 3 mps 748 mmHg 58%
17:00 +24°C° 0 mm 2 mps 748 mmHg 61%
18:00 +21°C° 0 mm 2 mps 748 mmHg 67%
19:00 +19°C° 0 mm 2 mps 748 mmHg 73%
20:00 +17°C° 0 mm 2 mps 748 mmHg 79%
21:00 +16°C° 0 mm 2 mps 749 mmHg 81%
22:00 +16°C° 0 mm 2 mps 749 mmHg 84%
23:00 +15°C° 0 mm 2 mps 749 mmHg 86%

Day after tomorrow, 7 August, Friday

Time Temperature Precipitation Wind Pressure Humidity
00:00 +15°C° 0 mm 2 mps 749 mmHg 88%
01:00 +14°C° 0 mm 2 mps 749 mmHg 90%
02:00 +14°C° 0 mm 2 mps 750 mmHg 92%
03:00 +14°C° 0 mm 2 mps 750 mmHg 91%
04:00 +14°C° 0 mm 1 mps 750 mmHg 90%
05:00 +14°C° 0 mm 1 mps 750 mmHg 90%
06:00 +15°C° 0 mm 1 mps 750 mmHg 86%
07:00 +16°C° 0 mm 1 mps 750 mmHg 82%
08:00 +18°C° 0 mm 1 mps 751 mmHg 79%
09:00 +20°C° 0 mm 1 mps 751 mmHg 74%
10:00 +21°C° 0 mm 1 mps 751 mmHg 69%
11:00 +22°C° 0 mm 1 mps 751 mmHg 64%
12:00 +21°C° 0 mm 2 mps 751 mmHg 66%
13:00 +21°C° 0 mm 2 mps 750 mmHg 67%
14:00 +21°C° 0 mm 2 mps 750 mmHg 69%
15:00 +21°C° 0 mm 2 mps 750 mmHg 70%
16:00 +21°C° 0 mm 2 mps 750 mmHg 71%
17:00 +21°C° 0 mm 2 mps 750 mmHg 72%
18:00 +21°C° 0 mm 1 mps 750 mmHg 78%
19:00 +19°C° 0 mm 1 mps 750 mmHg 84%
20:00 +18°C° 0 mm 1 mps 749 mmHg 90%
21:00 +16°C° 0 mm 1 mps 749 mmHg 90%
22:00 +16°C° 0 mm 1 mps 749 mmHg 89%
23:00 +16°C° 0 mm 1 mps 750 mmHg 89%

8 August, Saturday

Time Temperature Precipitation Wind Pressure Humidity
00:00 +16°C° 0 mm 1 mps 750 mmHg 89%
01:00 +16°C° 0 mm 1 mps 750 mmHg 89%
02:00 +15°C° 0 mm 0 mps 750 mmHg 89%
03:00 +15°C° 0 mm 0 mps 749 mmHg 88%
04:00 +15°C° 0 mm 0 mps 749 mmHg 88%
05:00 +15°C° 0 mm 0 mps 749 mmHg 88%
06:00 +16°C° 0 mm 0 mps 749 mmHg 84%
07:00 +17°C° 0 mm 0 mps 749 mmHg 80%
08:00 +19°C° 0 mm 0 mps 749 mmHg 76%
09:00 +20°C° 0 mm 0 mps 749 mmHg 69%
10:00 +22°C° 0 mm 0 mps 749 mmHg 63%
11:00 +24°C° 0 mm 0 mps 749 mmHg 56%
12:00 +24°C° 0 mm 0 mps 749 mmHg 55%
13:00 +24°C° 0 mm 0 mps 748 mmHg 54%
14:00 +24°C° 0 mm 0 mps 748 mmHg 53%
15:00 +25°C° 0.1 mm 1 mps 747 mmHg 59%
16:00 +25°C° 0.1 mm 1 mps 747 mmHg 65%
17:00 +24°C° 0.1 mm 1 mps 746 mmHg 70%
18:00 +22°C° 0 mm 1 mps 746 mmHg 76%
19:00 +20°C° 0 mm 1 mps 746 mmHg 82%
20:00 +19°C° 0 mm 1 mps 746 mmHg 88%
21:00 +18°C° 0 mm 1 mps 746 mmHg 89%
22:00 +18°C° 0 mm 1 mps 746 mmHg 91%
23:00 +16°C° 0 mm 1 mps 746 mmHg 93%

9 August, Sunday

Time Temperature Precipitation Wind Pressure Humidity
00:00 +16°C° 0 mm 1 mps 746 mmHg 94%
01:00 +16°C° 0 mm 1 mps 745 mmHg 95%
02:00 +15°C° 0 mm 1 mps 745 mmHg 96%
03:00 +15°C° 0 mm 1 mps 745 mmHg 96%
04:00 +15°C° 0 mm 1 mps 745 mmHg 96%
05:00 +15°C° 0 mm 1 mps 745 mmHg 97%
06:00 +17°C° 0 mm 2 mps 745 mmHg 90%
07:00 +19°C° 0 mm 2 mps 745 mmHg 84%
08:00 +20°C° 0 mm 2 mps 745 mmHg 78%
09:00 +21°C° 0 mm 2 mps 745 mmHg 71%
10:00 +24°C° 0 mm 3 mps 745 mmHg 65%
11:00 +25°C° 0 mm 3 mps 745 mmHg 58%
12:00 +25°C° 0 mm 3 mps 745 mmHg 56%
13:00 +26°C° 0 mm 3 mps 745 mmHg 55%
14:00 +26°C° 0 mm 2 mps 744 mmHg 53%
15:00 +25°C° 0.1 mm 2 mps 744 mmHg 60%
16:00 +25°C° 0.1 mm 2 mps 744 mmHg 66%
17:00 +24°C° 0.1 mm 2 mps 744 mmHg 73%
18:00 +21°C° 0.1 mm 2 mps 744 mmHg 79%
19:00 +20°C° 0.1 mm 2 mps 744 mmHg 85%
20:00 +18°C° 0.1 mm 2 mps 744 mmHg 91%
21:00 +18°C° 0 mm 1 mps 744 mmHg 92%
22:00 +16°C° 0 mm 1 mps 744 mmHg 92%
23:00 +16°C° 0 mm 1 mps 745 mmHg 93%

10 August, Monday

Time Temperature Precipitation Wind Pressure Humidity
00:00 +15°C° 0 mm 1 mps 745 mmHg 93%
01:00 +15°C° 0 mm 1 mps 745 mmHg 93%
02:00 +14°C° 0 mm 1 mps 745 mmHg 92%
03:00 +14°C° 0 mm 1 mps 745 mmHg 93%
04:00 +14°C° 0 mm 1 mps 745 mmHg 93%
05:00 +13°C° 0 mm 1 mps 745 mmHg 93%
06:00 +15°C° 0 mm 1 mps 745 mmHg 85%
07:00 +18°C° 0 mm 1 mps 745 mmHg 78%
08:00 +20°C° 0 mm 1 mps 745 mmHg 70%
09:00 +22°C° 0 mm 1 mps 745 mmHg 64%
10:00 +23°C° 0 mm 1 mps 746 mmHg 57%
11:00 +25°C° 0 mm 1 mps 746 mmHg 51%
12:00 +25°C° 0 mm 1 mps 745 mmHg 49%
13:00 +26°C° 0 mm 1 mps 745 mmHg 48%
14:00 +25°C° 0 mm 0 mps 745 mmHg 47%
15:00 +24°C° 0 mm 0 mps 745 mmHg 52%
16:00 +24°C° 0 mm 0 mps 745 mmHg 56%
17:00 +26°C° 0 mm 1 mps 744 mmHg 61%
18:00 +23°C° 0 mm 1 mps 744 mmHg 68%
19:00 +21°C° 0 mm 1 mps 744 mmHg 76%
20:00 +19°C° 0 mm 1 mps 744 mmHg 83%
21:00 +19°C° 0 mm 1 mps 744 mmHg 85%
22:00 +18°C° 0 mm 1 mps 744 mmHg 88%
23:00 +18°C° 0 mm 1 mps 744 mmHg 91%
Show more